FDX209 KSAN-KSFO

Flight info

Callsign FDX209
Flight time 0h 39m
Altitude 30000
Route PADRZ2 IKAYE RIZIN SPLNT STOKD SERFR SERFR4
Aircraft MD11/H-SDE1E2E3FGHIJ2J3J4J5M1RWXY/LB1D1

Departure

Time 2026-04-22 04:56
Airport San Diego International Airport (KSAN)

Arrival

Time 2026-04-22 05:35
Airport San Francisco International Airport (KSFO)
Time Latitude Longitude Altitude Speed Heading
2026-04-22 04:35 32.73817 -117.18708 30 ft 0 kts 325°
2026-04-22 04:46 32.73818 -117.18709 31 ft 0 kts 325°
2026-04-22 04:46 32.73816 -117.18708 31 ft 1 kts 325°
2026-04-22 04:46 32.73807 -117.18699 26 ft 2 kts 321°
2026-04-22 04:47 32.73797 -117.18690 24 ft 2 kts 321°
2026-04-22 04:47 32.73786 -117.18680 24 ft 2 kts 321°
2026-04-22 04:47 32.73776 -117.18671 32 ft 2 kts 324°
2026-04-22 04:47 32.73766 -117.18662 33 ft 2 kts 324°
2026-04-22 04:48 32.73755 -117.18653 31 ft 2 kts 323°
2026-04-22 04:48 32.73747 -117.18641 31 ft 2 kts 249°
2026-04-22 04:48 32.73752 -117.18632 32 ft 1 kts 198°
2026-04-22 04:48 32.73757 -117.18630 30 ft 0 kts 181°
2026-04-22 04:51 32.73754 -117.18630 30 ft 1 kts 177°
2026-04-22 04:51 32.73691 -117.18597 34 ft 17 kts 146°
2026-04-22 04:51 32.73583 -117.18510 32 ft 20 kts 145°
2026-04-22 04:52 32.73469 -117.18415 33 ft 13 kts 147°
2026-04-22 04:52 32.73396 -117.18391 33 ft 1 kts 171°
2026-04-22 04:52 32.73356 -117.18394 33 ft 9 kts 168°
2026-04-22 04:52 32.73310 -117.18301 32 ft 15 kts 107°
2026-04-22 04:53 32.73279 -117.18177 32 ft 16 kts 105°
2026-04-22 04:53 32.73249 -117.18050 32 ft 17 kts 105°
2026-04-22 04:53 32.73220 -117.17920 31 ft 14 kts 105°
2026-04-22 04:53 32.73195 -117.17809 32 ft 14 kts 105°
2026-04-22 04:54 32.73169 -117.17709 33 ft 12 kts 109°
2026-04-22 04:54 32.73137 -117.17616 32 ft 11 kts 121°
2026-04-22 04:54 32.73122 -117.17588 32 ft 0 kts 123°
2026-04-22 04:55 32.73074 -117.17549 31 ft 29 kts 159°
2026-04-22 04:55 32.73016 -117.17568 32 ft 10 kts 246°
2026-04-22 04:55 32.73034 -117.17658 30 ft 28 kts 289°
2026-04-22 04:55 32.73197 -117.18316 34 ft 141 kts 286°
2026-04-22 04:56 32.73540 -117.19710 534 ft 198 kts 286°
2026-04-22 04:56 32.73938 -117.21252 2110 ft 184 kts 292°
2026-04-22 04:56 32.74530 -117.22586 3889 ft 190 kts 300°
2026-04-22 04:56 32.75362 -117.24091 4464 ft 244 kts 302°
2026-04-22 04:57 32.76344 -117.25778 5475 ft 253 kts 303°
2026-04-22 04:57 32.77365 -117.27506 6752 ft 257 kts 302°
2026-04-22 04:57 32.78411 -117.29270 7927 ft 262 kts 302°
2026-04-22 04:57 32.79462 -117.31029 9122 ft 266 kts 302°
2026-04-22 04:58 32.80588 -117.32830 10258 ft 276 kts 302°
2026-04-22 04:58 32.81813 -117.34765 10463 ft 317 kts 303°
2026-04-22 04:58 32.83209 -117.36950 11076 ft 337 kts 303°
2026-04-22 04:58 32.84653 -117.39181 12214 ft 341 kts 303°
2026-04-22 04:59 32.86096 -117.41409 13346 ft 346 kts 303°
2026-04-22 04:59 32.87584 -117.43709 14419 ft 351 kts 303°
2026-04-22 04:59 32.89063 -117.45999 15426 ft 355 kts 303°
2026-04-22 04:59 32.90580 -117.48351 16463 ft 359 kts 303°
2026-04-22 05:00 32.92112 -117.50729 17509 ft 362 kts 303°
2026-04-22 05:00 32.93638 -117.53110 18516 ft 367 kts 302°
2026-04-22 05:00 32.95194 -117.55547 19426 ft 370 kts 302°
2026-04-22 05:00 32.96761 -117.58003 20372 ft 372 kts 302°
2026-04-22 05:01 32.98320 -117.60446 21262 ft 375 kts 302°
2026-04-22 05:01 32.99911 -117.62942 22161 ft 378 kts 302°
2026-04-22 05:01 33.01511 -117.65452 23089 ft 381 kts 302°
2026-04-22 05:01 33.03104 -117.67952 23943 ft 384 kts 302°
2026-04-22 05:02 33.04726 -117.70501 24663 ft 387 kts 302°
2026-04-22 05:02 33.06498 -117.72971 25425 ft 394 kts 308°
2026-04-22 05:02 33.08499 -117.75225 26576 ft 394 kts 311°
2026-04-22 05:02 33.10536 -117.77330 27729 ft 391 kts 312°
2026-04-22 05:03 33.12619 -117.79427 28757 ft 393 kts 312°
2026-04-22 05:03 33.14750 -117.81582 29154 ft 405 kts 312°
2026-04-22 05:03 33.16904 -117.83774 29576 ft 416 kts 312°
2026-04-22 05:03 33.19147 -117.86069 29895 ft 428 kts 312°
2026-04-22 05:04 33.21422 -117.88409 29960 ft 444 kts 312°
2026-04-22 05:04 33.26031 -117.93587 29974 ft 461 kts 309°
2026-04-22 05:04 33.28278 -117.96288 30102 ft 464 kts 309°
2026-04-22 05:05 33.30555 -117.99054 30131 ft 467 kts 309°
2026-04-22 05:05 33.32819 -118.01802 30128 ft 456 kts 309°
2026-04-22 05:05 33.35046 -118.04497 30137 ft 453 kts 309°
2026-04-22 05:06 33.39452 -118.09832 30151 ft 450 kts 309°
2026-04-22 05:06 33.43851 -118.15156 30160 ft 449 kts 309°
2026-04-22 05:07 33.48233 -118.20467 30169 ft 449 kts 309°
2026-04-22 05:07 33.52582 -118.25737 30165 ft 446 kts 308°
2026-04-22 05:08 33.56958 -118.31062 30184 ft 450 kts 308°
2026-04-22 05:08 33.61358 -118.36414 30160 ft 449 kts 308°
2026-04-22 05:09 33.65720 -118.41728 30150 ft 447 kts 309°
2026-04-22 05:09 33.70060 -118.47023 30148 ft 446 kts 308°
2026-04-22 05:10 33.74435 -118.52372 30160 ft 447 kts 308°
2026-04-22 05:10 33.78773 -118.57683 30155 ft 447 kts 308°
2026-04-22 05:11 33.83106 -118.63013 30152 ft 447 kts 308°
2026-04-22 05:11 33.87451 -118.68380 30149 ft 445 kts 309°
2026-04-22 05:12 33.91758 -118.73686 30190 ft 443 kts 308°
2026-04-22 05:12 33.96066 -118.78994 30157 ft 443 kts 308°
2026-04-22 05:13 34.00361 -118.84293 30149 ft 443 kts 308°
2026-04-22 05:13 34.04656 -118.89600 30143 ft 443 kts 308°
2026-04-22 05:14 34.08979 -118.94950 30203 ft 443 kts 308°
2026-04-22 05:14 34.13253 -119.00249 30149 ft 439 kts 308°
2026-04-22 05:15 34.17064 -119.05889 30152 ft 432 kts 299°
2026-04-22 05:15 34.20215 -119.12076 30165 ft 430 kts 296°
2026-04-22 05:16 34.23278 -119.18274 30157 ft 430 kts 297°
2026-04-22 05:16 34.32250 -119.35989 30146 ft 427 kts 297°
2026-04-22 05:17 34.46086 -119.59304 30134 ft 433 kts 309°
2026-04-22 05:17 34.63068 -119.80175 30138 ft 433 kts 308°
2026-04-22 05:18 34.88071 -120.11496 30134 ft 431 kts 308°
2026-04-22 05:18 34.96275 -120.21832 30853 ft 426 kts 308°
2026-04-22 05:18 35.04485 -120.32230 32127 ft 421 kts 309°
2026-04-22 05:19 35.34102 -120.65803 32163 ft 418 kts 310°
2026-04-22 05:19 35.51542 -120.84942 31942 ft 413 kts 314°
2026-04-22 05:19 35.70629 -121.02443 30154 ft 431 kts 315°
2026-04-22 05:20 35.89536 -121.20317 29489 ft 435 kts 315°
2026-04-22 05:20 36.09102 -121.38434 28171 ft 446 kts 319°
2026-04-22 05:20 36.30290 -121.54704 27418 ft 447 kts 320°
2026-04-22 05:20 36.40904 -121.63106 26756 ft 450 kts 320°
2026-04-22 05:21 36.46198 -121.67291 26505 ft 451 kts 320°
2026-04-22 05:21 36.51443 -121.71450 26205 ft 451 kts 320°
2026-04-22 05:21 36.56767 -121.75684 25885 ft 452 kts 320°
2026-04-22 05:21 36.62021 -121.79863 25593 ft 453 kts 320°
2026-04-22 05:22 36.67343 -121.84100 25248 ft 453 kts 320°
2026-04-22 05:22 36.70468 -121.86584 25050 ft 433 kts 320°
2026-04-22 05:22 36.72856 -121.88439 24850 ft 371 kts 319°
2026-04-22 05:22 36.74948 -121.90079 24601 ft 345 kts 317°
2026-04-22 05:23 36.76937 -121.91684 24404 ft 341 kts 321°
2026-04-22 05:23 36.79212 -121.92755 24187 ft 362 kts 335°
2026-04-22 05:23 36.81748 -121.93176 23159 ft 371 kts 343°
2026-04-22 05:23 36.83455 -121.93300 22359 ft 368 kts 345°
2026-04-22 05:24 36.86800 -121.93615 20819 ft 356 kts 342°
2026-04-22 05:24 36.89228 -121.94002 19707 ft 347 kts 340°
2026-04-22 05:24 36.90804 -121.94320 18992 ft 341 kts 339°
2026-04-22 05:24 36.93875 -121.95047 17090 ft 332 kts 339°
2026-04-22 05:25 36.95366 -121.95459 16123 ft 328 kts 338°
2026-04-22 05:25 36.97557 -121.96209 14752 ft 324 kts 337°
2026-04-22 05:25 36.99711 -121.97029 13471 ft 322 kts 338°
2026-04-22 05:25 37.03177 -121.98388 11857 ft 317 kts 338°
2026-04-22 05:26 37.07364 -122.00037 11103 ft 317 kts 338°
2026-04-22 05:26 37.11590 -122.01698 10818 ft 316 kts 338°
2026-04-22 05:26 37.15806 -122.03356 10345 ft 317 kts 338°
2026-04-22 05:26 37.19761 -122.04897 9349 ft 280 kts 338°
2026-04-22 05:27 37.23385 -122.06325 8548 ft 271 kts 338°
2026-04-22 05:27 37.26976 -122.07744 8159 ft 268 kts 338°
2026-04-22 05:27 37.30481 -122.09127 8160 ft 263 kts 338°
2026-04-22 05:27 37.33956 -122.10502 7466 ft 266 kts 339°
2026-04-22 05:28 37.37432 -122.11855 6713 ft 257 kts 340°
2026-04-22 05:28 37.39884 -122.12720 6190 ft 256 kts 341°
2026-04-22 05:28 37.40907 -122.13073 6128 ft 249 kts 341°
2026-04-22 05:28 37.41736 -122.13356 6096 ft 241 kts 341°
2026-04-22 05:29 37.42792 -122.13717 5813 ft 240 kts 341°
2026-04-22 05:29 37.44403 -122.14274 5288 ft 244 kts 341°
2026-04-22 05:29 37.46034 -122.14837 4903 ft 241 kts 341°
2026-04-22 05:29 37.47649 -122.15394 4488 ft 239 kts 341°
2026-04-22 05:30 37.49238 -122.15942 4162 ft 234 kts 341°
2026-04-22 05:30 37.50389 -122.16345 3965 ft 227 kts 340°
2026-04-22 05:30 37.51873 -122.16877 3681 ft 208 kts 338°
2026-04-22 05:30 37.53043 -122.17611 3327 ft 174 kts 317°
2026-04-22 05:31 37.53765 -122.18705 2926 ft 158 kts 297°
2026-04-22 05:31 37.54336 -122.19863 2725 ft 157 kts 299°
2026-04-22 05:31 37.54876 -122.20943 2519 ft 138 kts 297°
2026-04-22 05:31 37.55356 -122.21981 2377 ft 135 kts 294°
2026-04-22 05:32 37.55790 -122.23020 2219 ft 135 kts 293°
2026-04-22 05:32 37.56231 -122.24072 2061 ft 136 kts 294°
2026-04-22 05:32 37.56668 -122.25114 1893 ft 136 kts 294°
2026-04-22 05:32 37.57113 -122.26173 1716 ft 137 kts 294°
2026-04-22 05:33 37.57560 -122.27238 1527 ft 137 kts 294°
2026-04-22 05:33 37.58001 -122.28289 1357 ft 137 kts 295°
2026-04-22 05:33 37.58450 -122.29359 1158 ft 138 kts 295°
2026-04-22 05:33 37.58895 -122.30419 981 ft 137 kts 295°
2026-04-22 05:34 37.59346 -122.31494 805 ft 138 kts 295°
2026-04-22 05:34 37.59791 -122.32553 641 ft 137 kts 294°
2026-04-22 05:34 37.60235 -122.33615 461 ft 136 kts 295°
2026-04-22 05:34 37.60672 -122.34658 279 ft 136 kts 295°
2026-04-22 05:35 37.61117 -122.35717 106 ft 136 kts 295°
2026-04-22 05:35 37.61540 -122.36723 29 ft 110 kts 298°
2026-04-22 05:35 37.61807 -122.37353 25 ft 52 kts 298°
2026-04-22 05:35 37.61881 -122.37528 28 ft 14 kts 297°
2026-04-22 05:36 37.61908 -122.37714 27 ft 31 kts 265°
2026-04-22 05:36 37.61890 -122.37912 28 ft 12 kts 265°
2026-04-22 05:36 37.61899 -122.38030 28 ft 20 kts 287°
2026-04-22 05:36 37.61891 -122.38104 28 ft 7 kts 228°
2026-04-22 05:37 37.61856 -122.38120 27 ft 0 kts 199°